Temp
11 11 11 11 12 12 13 14 16 18 17 18 18 18 18 18 18 19 19 19 19 19 19 19 19 19 19 19 19 18 18 19 19 19 18 18 19 19 19 18 18 19 17 16 15 15 15
11 11 11 11 14 14 14 15 16 17 18 18 18 18 18 19 19 19 19 19 19 19 19 19 19 19 18 20 19 18 18 19 19 19 17 17 18 18 18 18 18 17 17 16 15 16 15
11 11 11 13 14 14 15 16 17 18 18 18 18 18 18 19 19 19 19 19 19 19 19 19 19 19 18 20 19 18 18 18 18 18 17 17 17 19 17 18 17 17 18 17 15 15 15
11 11 14 14 14 14 15 15 16 17 18 18 18 18 18 19 18 18 19 20 19 19 19 19 19 18 18 19 18 18 18 18 18 18 18 18 18 16 17 16 15 16 15 16 16 13 15
11 12 14 14 14 14 14 15 16 17 18 18 18 18 18 18 18 19 19 19 19 19 19 19 19 18 19 18 18 17 17 17 18 18 18 18 17 15 15 15 15 13 17 17 15 12 13
12 13 13 14 14 14 14 15 15 17 18 18 18 18 18 18 19 19 19 19 19 19 18 19 18 18 18 18 17 17 17 17 16 17 18 17 13 14 11 14 14 18 17 16 14 13 12
12 13 13 13 14 14 15 15 15 17 18 18 18 18 18 18 19 19 19 19 16 17 17 18 17 17 17 17 16 17 16 16 17 16 17 15 15 16 16 14 15 15 15 14 13 12 12
13 12 13 13 14 14 15 15 15 16 18 18 19 18 18 19 19 19 18 14 13 15 18 16 16 16 16 16 18 16 16 18 19 18 17 15 16 14 14 14 15 14 14 13 13 11 11
12 12 13 13 14 14 14 15 15 16 17 18 18 18 19 19 19 18 16 13 14 14 17 17 16 16 16 16 16 16 15 16 17 17 15 16 15 14 14 14 15 14 14 14 13 9 9
12 12 13 13 14 14 14 15 15 16 17 18 18 18 19 19 18 16 14 14 14 14 15 18 17 17 16 15 17 14 14 15 15 16 14 14 13 14 14 14 12 16 12 12 11 9 10
11 12 12 13 13 14 14 15 15 16 17 18 18 18 18 18 17 15 14 14 14 15 15 19 18 16 15 17 16 16 14 16 16 14 14 15 13 13 14 14 12 13 11 11 9 4 4
11 12 12 13 13 14 14 15 15 16 17 18 18 17 17 17 17 14 14 14 14 15 15 19 17 17 17 16 16 15 15 13 13 14 11 11 10 11 12 11 11 10 10 9 6 7 7
11 12 12 12 13 14 14 15 15 16 17 17 17 16 17 16 14 14 14 13 14 13 18 19 17 16 16 16 16 16 15 10 11 15 15 12 12 10 10 12 11 9 9 8 9 8 10
11 12 12 12 13 14 14 15 15 16 17 16 16 16 15 15 14 14 14 14 19 18 17 15 15 16 17 15 16 15 14 13 11 10 6 11 14 10 8 8 8 11 7 7 11 11 12
10 11 12 12 13 13 14 15 15 16 16 16 16 16 15 14 14 14 12 11 16 15 14 15 15 16 17 15 15 15 14 7 10 10 12 11 15 8 7 7 7 9 8 8 4 5 5
10 11 12 12 13 13 14 14 15 16 16 16 16 15 14 14 14 14 11 14 15 13 13 13 17 16 17 15 16 15 14 9 11 9 7 11 11 8 7 7 7 7 6 8 3 7 8
10 11 11 12 13 13 14 14 15 16 16 16 15 12 14 14 14 9 11 11 13 12 12 13 14 14 15 15 14 14 14 12 11 8 7 3 7 9 8 7 5 4 3 3 5 6 7
10 11 11 12 12 13 13 14 15 15 16 15 11 14 14 14 11 4 10 12 12 12 11 12 12 12 13 13 13 13 13 13 7 7 8 7 4 6 10 1 -1 2 4 3 8 6 6
10 10 11 11 12 12 13 14 14 15 15 14 9 9 14 14 12 9 10 12 12 12 12 12 12 11 11 12 12 11 13 9 8 9 5 4 5 6 9 5 3 2 -1 -1 4 4 6
10 10 10 10 11 12 12 13 14 15 14 14 8 13 9 6 5 9 11 12 13 10 11 11 11 11 11 11 10 10 12 10 9 9 9 8 5 7 11 9 4 3 2 4 5 6 6
8 9 9 9 10 10 11 12 14 14 14 13 5 7 6 7 8 9 10 10 11 12 9 10 11 10 8 8 10 10 11 10 9 10 8 6 5 7 7 8 5 6 4 3 7 8 10
7 7 8 8 9 9 10 11 13 14 14 9 7 6 5 6 7 10 7 9 10 10 11 11 11 9 9 7 10 10 9 10 9 7 7 4 7 5 4 7 6 8 8 6 7 8 9
5 5 5 6 8 8 9 10 11 13 13 7 5 7 5 5 7 7 6 8 8 8 10 9 9 9 9 8 6 6 6 7 8 9 7 6 6 6 9 9 8 8 8 8 9 -3 4
4 5 5 5 6 7 7 8 8 9 10 7 3 4 3 5 5 6 6 7 7 7 8 8 6 7 6 4 4 4 3 4 5 5 6 7 6 6 8 7 8 4 -2 -3 1 2 2
3 3 3 4 5 5 6 6 6 6 7 6 3 3 -0 1 3 5 5 5 5 4 5 5 5 5 2 4 4 5 5 6 5 3 3 5 6 7 7 8 8 4 3 3 4 3 2
3 3 3 3 3 3 4 5 5 6 6 6 3 3 2 0 3 3 4 4 2 3 3 5 3 3 2 2 4 3 3 6 6 5 3 5 4 6 7 7 6 3 3 2 2 4 1
2 2 3 3 3 3 3 2 3 4 5 5 3 2 3 -1 1 2 1 2 2 1 -0 -0 0 1 1 1 2 3 2 4 2 4 3 1 -0 4 5 6 5 3 3 2 5 3 -1
2 2 4 4 3 3 3 4 4 5 5 4 2 2 2 -4 0 2 2 2 0 -0 -1 -2 -2 -1 -1 0 3 3 3 0 1 3 1 3 1 1 1 0 3 2 3 3 1 0 -0
4 4 3 2 3 2 3 4 4 4 4 4 3 2 2 1 -0 1 2 2 2 2 -1 -3 -2 -2 2 2 -2 -3 -0 -6 -5 -2 1 -0 0 1 3 4 2 2 2 1 1 -0 -0
Height
815 812 810 807 805 803 800 798 795 793 793 791 790 788 785 784 783 782 782 781 780 780 778 777 777 777 777 780 781 778 776 775 774 774 774 774 776 778 784 785 785 788 790 791 793 794 795
816 814 811 808 806 804 803 799 796 795 793 791 789 787 785 783 781 781 780 780 779 778 777 777 777 777 778 784 779 778 776 775 774 774 774 775 776 778 783 787 788 789 790 792 793 794 794
817 815 813 810 808 806 803 800 797 794 792 791 789 786 784 782 780 779 778 778 778 776 777 777 777 777 779 780 779 778 776 776 776 775 775 776 777 777 782 787 789 790 790 792 796 795 794
818 816 813 811 809 806 804 801 797 794 792 790 788 786 783 781 779 778 776 776 777 776 777 777 777 777 781 779 779 778 776 775 776 776 776 777 777 780 784 788 793 795 799 804 795 799 796
819 818 815 813 810 807 804 801 797 794 792 790 787 785 782 780 779 776 775 774 775 776 777 777 778 778 782 780 779 778 776 776 776 777 777 777 778 787 791 797 805 810 808 805 803 806 802
819 818 815 813 810 807 804 801 798 795 792 789 787 784 781 779 777 775 775 774 775 776 777 777 778 784 781 782 779 778 777 776 777 777 779 780 789 797 807 806 826 804 807 808 812 808 807
820 819 817 813 811 808 805 801 798 794 792 788 785 783 781 778 776 774 775 776 780 780 777 778 781 782 781 781 779 778 777 777 777 780 789 790 798 802 801 805 804 807 810 813 811 811 809
821 820 817 814 811 808 805 801 798 794 791 787 784 782 780 778 776 775 775 776 780 782 782 780 781 781 781 781 780 779 778 779 778 789 789 798 799 803 804 806 806 809 811 816 809 812 816
822 821 818 815 812 808 805 802 798 794 790 786 784 781 779 777 776 776 775 779 780 781 784 782 781 781 782 782 783 782 781 782 783 789 796 797 803 804 804 808 808 810 813 812 818 823 821
822 820 818 815 812 808 805 802 798 794 790 786 783 780 778 776 779 777 779 780 780 781 800 785 783 782 782 781 784 784 783 785 788 794 800 802 805 804 806 806 813 806 816 818 821 832 835
822 821 818 816 812 809 806 802 798 793 789 785 782 780 778 777 777 779 783 781 781 783 831 785 783 782 781 784 786 784 785 782 789 796 801 798 806 807 807 805 811 812 820 821 831 861 865
823 822 819 816 813 810 806 803 798 793 788 784 782 780 778 778 778 781 781 782 783 807 826 786 784 785 784 783 785 785 786 787 792 796 806 809 813 812 810 814 814 820 822 830 843 845 856
824 822 820 817 814 810 806 802 798 793 788 783 781 781 779 779 780 780 780 783 810 827 786 788 788 789 790 788 787 788 791 809 807 802 799 808 808 816 816 811 817 822 829 849 846 855 831
825 823 820 818 814 810 806 802 798 792 787 784 782 781 782 781 781 780 781 794 800 791 791 793 792 790 789 792 790 791 794 800 805 810 842 820 809 813 821 824 826 817 837 854 840 833 817
826 824 821 818 815 811 806 802 797 792 787 784 783 783 783 783 782 780 788 821 802 798 798 797 793 792 791 793 796 793 795 820 804 806 810 817 798 823 825 825 828 825 833 833 867 869 870
827 825 822 818 815 811 807 802 796 791 786 784 783 784 785 783 782 782 798 803 797 801 800 799 792 792 793 796 794 794 793 809 801 807 813 804 816 823 828 827 831 832 835 836 867 860 849
828 826 823 819 816 811 807 801 796 791 787 783 782 787 786 783 783 791 809 808 800 803 803 801 799 798 797 797 798 799 793 798 800 811 814 832 826 821 825 830 835 844 854 853 849 846 845
829 826 823 819 816 812 807 801 796 791 786 783 784 792 785 783 796 820 808 801 802 802 803 803 804 803 802 801 800 801 799 793 807 809 815 820 836 837 811 847 851 845 839 842 831 844 836
830 827 824 820 817 813 808 803 797 792 788 786 793 793 785 783 803 813 808 801 801 802 803 804 803 805 805 804 807 803 796 806 807 807 823 826 832 844 814 837 842 847 855 854 835 841 830
832 829 826 822 819 814 809 804 798 793 790 789 795 796 794 796 809 809 804 803 801 805 805 806 807 806 805 805 808 809 799 806 808 807 807 811 829 819 803 805 827 838 840 829 827 823 816
834 831 828 826 821 816 811 806 800 795 792 792 802 812 813 817 810 809 810 810 804 803 809 807 807 809 818 820 808 807 803 803 807 805 811 818 828 813 806 804 816 808 820 824 808 797 787
837 835 832 828 824 819 814 808 802 796 793 796 809 815 816 818 815 808 816 816 809 810 807 806 808 813 814 822 810 809 811 806 806 811 813 820 808 818 819 801 804 790 791 800 795 785 778
842 838 835 833 828 824 819 813 808 802 797 804 813 813 815 825 819 821 827 820 821 817 812 812 813 813 813 815 819 815 813 809 803 802 809 814 813 810 777 786 791 778 779 777 770 823 792
844 841 840 838 833 829 825 821 818 813 810 810 816 817 821 830 826 829 830 826 826 825 822 817 819 818 819 818 814 809 811 808 808 805 807 801 811 807 788 795 783 794 809 813 805 799 800
849 848 845 841 838 835 831 830 826 823 820 815 818 820 828 843 837 832 834 833 830 830 827 827 825 826 822 819 820 814 809 802 805 813 812 807 804 798 794 787 773 792 792 795 788 796 800
854 852 850 848 843 840 838 836 833 829 825 822 823 823 825 838 839 837 836 836 840 839 835 828 827 825 824 829 825 831 834 807 806 807 812 807 808 801 795 789 794 799 792 794 794 790 800
857 856 853 851 848 845 843 841 837 833 829 828 830 828 828 838 838 837 841 842 839 842 847 843 839 833 829 835 834 835 834 819 830 818 822 827 831 811 803 792 790 795 795 797 791 799 805
860 858 856 854 853 849 846 843 839 836 834 832 834 831 832 840 838 837 837 838 841 845 851 845 846 843 843 844 834 833 831 837 835 820 828 823 832 829 825 828 805 799 798 798 804 803 807
863 862 860 859 854 852 849 846 843 839 837 835 834 835 833 833 837 836 835 835 836 837 842 846 848 847 837 840 854 856 845 862 861 850 822 834 822 824 812 797 799 799 797 801 803 806 807
Wind_Speed
8 9 10 10 10 11 12 12 10 8 7 6 7 9 9 7 5 4 5 4 4 4 3 3 3 3 1 2 2 7 8 5 2 2 4 1 2 2 3 3 1 2 1 0 1 1 2
8 9 10 11 13 13 13 13 11 9 8 6 7 10 10 7 7 6 5 5 6 6 4 3 2 3 3 1 2 9 6 4 7 4 4 4 2 2 5 2 2 1 1 1 1 2 2
8 9 10 11 12 13 15 16 14 12 9 7 8 11 11 9 7 5 5 5 4 4 2 1 2 2 2 1 1 9 6 3 6 5 3 3 1 3 3 2 1 1 1 1 5 3 3
8 9 10 11 13 14 15 16 17 15 12 9 8 11 11 9 6 6 6 6 2 2 2 1 1 2 2 1 2 6 7 2 4 4 4 3 3 5 3 1 5 4 4 5 2 8 2
7 8 9 11 12 14 16 16 17 16 14 10 8 11 10 10 5 6 5 3 7 1 3 1 2 3 3 1 1 5 7 3 3 2 3 2 3 4 4 4 4 7 1 2 7 5 4
6 8 10 11 12 14 16 17 17 16 15 12 10 10 11 8 4 6 3 3 5 2 3 2 3 3 1 2 3 4 4 4 3 1 3 5 5 3 4 4 3 2 2 3 5 4 4
6 7 8 10 12 13 16 17 18 17 16 14 11 9 10 6 6 4 1 3 4 3 6 1 1 1 2 5 1 4 6 2 1 6 2 3 5 1 2 1 2 4 1 3 4 2 6
6 7 8 10 12 13 16 17 19 19 17 15 11 9 10 8 4 4 2 4 2 1 1 0 1 0 1 2 1 3 7 2 2 2 1 5 1 3 4 2 2 2 1 5 4 3 1
6 6 8 10 12 14 16 18 20 20 19 16 11 9 10 8 0 5 8 5 3 1 2 1 1 1 1 2 1 4 4 0 3 3 3 4 2 3 2 1 1 2 3 1 2 7 2
5 7 9 10 12 14 16 19 20 21 19 16 11 9 9 3 2 3 3 3 1 2 4 2 1 1 1 2 1 2 3 2 4 4 3 3 1 3 2 2 4 2 3 2 2 4 3
5 7 9 11 12 14 17 19 20 21 20 17 11 7 6 6 4 3 1 1 1 1 4 1 1 1 0 2 0 3 3 2 4 4 4 2 4 2 3 2 3 2 2 1 3 4 4
5 7 10 11 13 15 17 19 21 22 22 17 9 6 4 2 4 3 1 1 1 6 5 1 1 2 2 2 2 1 3 6 3 4 4 2 1 1 1 2 2 3 3 4 4 2 2
7 8 10 12 14 16 18 21 22 23 23 15 7 5 6 4 2 2 2 3 5 5 2 1 1 3 2 2 2 2 3 4 3 3 2 2 1 1 1 3 1 4 4 3 5 3 5
8 9 11 13 15 17 19 22 23 24 24 13 3 2 6 10 4 2 2 5 1 2 3 2 1 2 1 3 1 1 1 2 2 4 3 3 5 3 2 3 5 2 6 5 6 3 3
9 10 11 13 16 18 21 23 24 24 23 11 1 3 4 12 5 2 5 4 6 4 1 4 3 1 2 1 1 2 4 4 5 6 7 5 4 2 4 2 2 3 3 3 6 2 3
10 11 12 14 17 19 21 23 25 25 23 10 1 2 5 11 4 2 5 5 1 1 1 1 2 1 2 2 2 2 2 4 1 1 2 2 3 2 1 2 3 3 1 3 3 1 5
11 12 14 16 18 20 21 23 25 25 23 8 2 3 6 10 2 5 3 4 1 1 1 1 1 2 2 2 1 2 3 3 2 3 4 3 3 1 1 6 7 1 1 3 3 4 5
12 14 16 17 19 21 22 24 24 24 22 7 3 2 7 5 4 1 2 2 0 0 0 0 1 3 3 1 3 4 5 2 4 6 5 1 4 3 6 1 2 2 4 4 4 5 2
14 16 18 20 21 23 24 25 25 22 18 4 2 1 3 3 3 2 3 1 0 1 1 0 1 2 0 2 2 3 2 2 3 2 5 4 1 3 7 4 3 2 4 3 3 2 7
16 19 21 22 23 24 25 25 25 22 15 3 3 2 4 4 1 5 2 2 2 1 2 2 2 2 1 2 2 4 2 3 1 1 3 4 2 7 10 6 5 2 4 6 6 3 4
19 20 21 23 25 27 27 27 25 21 12 4 4 0 2 2 3 2 2 3 2 3 3 2 1 1 2 2 4 4 1 4 1 2 2 3 5 5 7 6 4 7 6 9 11 11 12
20 21 22 24 26 28 29 30 29 22 9 9 2 3 3 1 3 2 4 2 3 4 2 2 1 3 2 2 4 9 5 3 6 1 5 3 5 1 6 9 11 19 12 11 18 18 16
20 23 24 24 26 28 30 31 32 31 14 8 5 2 3 5 3 3 3 4 3 4 4 4 3 2 3 3 4 8 7 7 8 5 7 5 3 2 20 4 6 14 16 17 15 1 7
22 23 24 25 27 28 30 31 29 32 25 9 6 2 3 2 4 2 4 3 5 4 3 5 5 3 3 6 7 7 7 11 9 10 4 7 4 2 10 1 14 5 2 4 3 2 3
21 21 22 25 26 27 28 29 28 25 24 27 14 4 3 2 1 3 7 3 5 6 4 3 4 2 8 5 4 6 4 4 1 2 2 3 4 4 5 7 11 3 3 3 5 4 1
20 21 21 22 23 25 25 26 26 27 23 16 25 8 4 5 1 1 1 3 1 3 6 3 4 8 6 3 3 2 3 3 5 5 3 1 4 4 2 6 5 1 2 4 1 2 5
18 19 20 21 22 22 23 23 24 24 24 16 17 15 3 3 1 1 2 2 0 2 1 3 6 7 4 2 2 1 3 2 2 3 4 4 3 5 7 8 4 2 3 2 1 3 3
18 18 18 18 18 19 20 22 22 22 21 14 11 15 5 2 2 0 0 3 2 1 2 3 3 3 3 4 1 1 2 2 2 3 3 3 2 3 1 3 10 1 2 3 2 4 5
16 17 17 17 18 19 20 20 20 19 17 12 5 10 6 5 3 1 1 2 2 4 4 2 3 1 1 0 2 2 3 2 2 3 3 3 5 2 4 4 1 1 2 4 6 6 2
Wind_Direction
20 27 26 27 22 19 20 15 22 16 8 16 12 359 351 344 333 325 326 323 327 330 330 343 350 359 82 36 297 338 344 1 30 93 61 51 86 114 129 113 63 83 169 88 89 15 258
24 24 23 25 37 30 23 21 24 17 14 15 8 3 355 348 330 305 293 304 309 303 311 328 346 6 72 287 1 351 354 34 41 66 63 37 110 137 104 83 100 138 145 352 46 344 328
27 23 23 38 37 30 25 19 20 17 9 1 355 357 351 343 331 315 278 308 312 309 275 348 9 63 87 236 7 2 9 56 37 52 89 65 84 75 122 107 174 115 49 23 14 10 359
22 22 29 43 36 29 24 20 19 18 10 357 353 351 347 343 329 322 294 279 212 52 121 28 56 75 225 312 330 352 14 75 14 57 87 81 69 102 59 151 26 40 51 9 358 7 11
26 23 43 39 32 26 22 18 17 16 10 359 351 352 348 336 313 338 328 257 187 23 204 39 78 70 285 301 331 350 15 35 23 71 56 74 70 84 38 76 22 10 275 322 322 33 316
26 34 39 32 27 23 20 17 15 13 8 359 349 350 350 348 341 347 350 125 155 138 117 101 67 45 3 276 311 342 3 26 70 63 51 47 47 68 38 64 222 267 340 288 255 338 354
27 42 32 27 21 19 17 15 11 9 5 360 352 347 351 355 358 357 136 132 30 348 52 131 144 251 317 317 302 9 351 40 59 49 66 10 68 226 181 131 103 117 153 253 265 15 339
36 33 23 21 19 18 15 13 10 7 3 360 353 346 349 345 3 26 59 80 83 154 0 65 123 283 290 346 330 353 3 116 83 121 31 27 180 159 112 91 108 120 252 279 283 19 27
52 29 21 17 17 16 13 11 9 6 2 358 353 348 349 343 123 41 73 90 91 48 111 276 197 261 279 2 126 318 13 78 82 109 36 151 137 124 139 105 123 221 195 236 258 326 58
48 25 19 15 15 15 12 10 8 4 359 357 353 351 355 29 148 59 59 80 60 90 64 267 274 293 1 76 358 339 22 83 40 154 117 97 137 149 133 207 136 272 83 78 357 36 278
45 25 18 15 15 13 8 7 4 2 359 354 351 352 358 36 113 70 87 70 100 102 14 284 311 292 52 88 37 16 22 7 135 131 103 231 161 170 194 215 174 178 64 95 103 92 49
39 23 18 16 15 13 8 4 1 359 356 351 351 3 2 45 70 77 80 100 80 45 260 338 346 316 358 37 29 350 35 40 120 97 52 90 23 66 138 81 82 136 97 57 60 92 21
38 27 21 18 16 13 10 6 3 358 355 353 359 46 45 45 88 47 96 69 35 130 344 332 323 29 8 319 352 43 30 5 161 87 241 36 193 107 71 132 93 83 63 330 351 4 223
47 37 26 21 17 14 10 7 5 360 356 354 18 76 57 38 28 68 105 55 190 223 233 358 329 320 267 19 258 357 60 299 202 87 93 156 308 164 16 147 178 134 143 159 231 226 272
49 40 31 23 20 14 10 7 5 2 358 357 65 84 53 4 11 81 76 74 216 202 344 352 316 358 313 328 235 11 208 200 211 180 170 154 262 79 48 85 81 170 184 144 100 57 56
48 40 32 27 18 12 7 5 2 3 359 359 117 82 27 359 3 65 76 222 208 23 355 51 237 115 267 290 341 359 208 227 182 139 155 172 345 18 102 100 42 142 139 67 3 275 257
51 42 33 27 18 13 7 2 360 359 357 4 90 64 355 352 2 50 154 226 320 51 20 15 258 292 245 293 215 247 261 263 136 123 78 126 99 277 94 198 182 57 342 38 124 159 199
50 43 34 27 19 13 8 3 358 356 359 7 81 43 356 4 47 5 133 201 244 247 78 133 162 206 222 255 254 245 238 240 151 150 167 157 149 220 226 334 154 133 200 155 145 246 220
52 44 35 28 21 16 12 7 2 358 2 348 84 251 353 16 110 340 296 312 92 20 290 266 269 210 98 258 286 214 296 30 126 134 171 202 285 350 323 358 26 204 217 164 139 97 196
51 44 38 31 24 19 14 10 4 1 3 28 71 14 342 46 80 119 39 13 342 59 345 355 332 31 14 271 217 301 306 30 211 244 124 145 180 183 240 219 134 206 204 205 156 180 229
52 45 39 34 31 27 22 18 12 5 9 37 24 310 173 314 3 62 58 13 352 356 37 39 30 25 148 324 322 237 234 350 201 223 116 142 220 222 250 252 207 221 188 192 201 216 234
52 48 44 40 36 33 29 27 25 16 20 73 65 41 7 47 335 37 12 7 35 333 2 1 54 358 157 209 248 297 327 203 231 83 181 180 268 179 261 248 247 257 238 213 225 241 252
57 51 45 42 42 37 35 34 33 35 41 79 28 51 112 332 26 62 9 347 41 338 4 76 337 286 265 285 282 258 234 247 255 207 205 177 211 215 273 236 275 264 236 226 243 195 235
56 52 46 43 44 41 39 38 37 39 44 78 45 7 67 346 67 61 2 342 356 353 284 326 32 11 344 306 276 265 250 252 259 262 219 250 207 229 284 13 264 301 229 176 147 65 133
52 49 46 42 40 40 38 36 37 37 39 55 42 41 85 87 29 29 8 1 337 337 356 328 12 326 309 328 338 339 327 352 73 33 8 257 243 261 254 243 280 303 203 161 158 182 225
50 45 42 39 38 36 35 34 31 31 34 41 37 38 79 117 278 240 324 29 330 322 337 347 338 333 20 66 37 10 278 315 322 344 344 236 228 246 299 288 277 278 31 39 337 204 160
48 42 39 36 32 31 28 25 25 28 26 37 32 22 42 103 271 84 138 173 94 60 239 311 331 350 5 42 50 228 277 299 302 301 329 334 341 237 265 273 287 22 0 5 78 265 141
46 39 35 31 27 25 24 21 18 21 23 28 36 27 40 107 279 196 159 150 93 90 143 274 30 340 23 58 352 295 274 270 317 276 220 223 234 250 260 325 284 24 356 255 219 82 99
39 32 27 23 22 18 17 14 10 9 14 24 42 21 35 92 195 201 215 177 167 181 148 350 184 209 20 85 351 355 274 351 158 274 319 311 191 209 210 263 158 279 251 99 76 80 87